Regional Weather Roundup
Issued by NWS Pendleton, OR

Home | Current Version | Previous Version | Text Only | Print | Product List | Glossary On
Versions: 1 2 3 4 5 6 7 8 9 10 11 12 13 14 15 16 17 18 19 20 21 22 23 24 25 26 27 28 29 30 31 32 33 34 35 36 37 38 39 40 41 42 43 44 45 46 47 48 49 50
000
ASUS46 KPDT 040725
RWRPDT
PENDLETON REGIONAL WEATHER ROUNDUP
NATIONAL WEATHER SERVICE PENDLETON OREGON
1100 PM PST TUE MAR 3 2015

NOTE: FAIR INDICATES FEW OR NO CLOUDS BELOW 12,000 FEET WITH NO
SIGNIFICANT WEATHER AND/OR OBSTRUCTIONS TO VISIBILITY.

# INDICATES UNOFFICIAL STATION AND DATA

WAZ520-040810-
EAST SLOPES OF WASHINGTON CASCADES

CITY            SKY/WX      TMP DP  RH  WIND    PRES   REMARKS
#BUMPING DAM    N/A         25  N/A N/A S1      N/A
#CLE ELUM HS    N/A         27  20  74  CALM    30.13R
#CLE ELUM LAKE  N/A         30  22  72  CALM    30.23R
#CLIFFDEL 2NW   N/A         27  18  68  N1      N/A
#GLENWOOD       N/A         21  18  88  CALM    30.26R
#MANASTASH CYN  N/A         26  16  65  CALM    30.13R
#NELSON         N/A         27  20  74  CALM    30.27R
#NELSON 3SW     N/A         26  20  78  CALM    30.48R
#NILE           N/A         24  21  88  CALM    29.52R
#RONALD 2NW     N/A         31  20  63  N1      30.01R
#SNOWDEN        N/A         24   8  50  CALM    N/A
#TEANAWAY 4NE   N/A         26  20  78  CALM    N/A
#TROUT LAKE 1NE N/A         26  22  85  CALM    30.27R
$$

WAZ521-040810-
SIMCOE HIGHLANDS

CITY            SKY/WX      TMP DP  RH  WIND    PRES   REMARKS
#BICKLETON HS   N/A         25  12  57  W3      N/A
#CENTERVILLE 4W N/A         33  23  66  NE1     29.94R
#CENTERVILLE 1SWN/A         27  22  81  CALM    30.24R
#GOLDENDALE     N/A         30  20  66  E5      N/A
#GOLDENDALE 1NE N/A         29  10  44  NW7     N/A
#GOLDENDALE 5WNWN/A         N/A N/A N/A CALM    30.23R
#GOODNOE HILLS  N/A         37  14  38  NE3     N/A
#LYLE 6NE       N/A         34  20  56  CALM    30.22R
$$

WAZ026-040810-
KITTITAS VALLEY

CITY            SKY/WX      TMP DP  RH  WIND    PRES   REMARKS
ELLENSBURG AP   CLEAR       28  20  71  CALM    30.19R
#ELLENSBURG CWU N/A         28  21  75  CALM    30.20R
#ELLENSBURG 3NE N/A         25  20  81  NE1     30.19R
#ELLENSBURG 1E  N/A         27  20  74  CALM    N/A
#KITTITAS 4N    N/A         29  19  66  W2      28.50R
#KITTITAS 3S    N/A         20  16  84  CALM    30.24R
#THORP 6N       N/A         29  21  72  N1      30.27R
$$

WAZ027-040810-
YAKIMA VALLEY

CITY            SKY/WX      TMP DP  RH  WIND    PRES   REMARKS
SUNNYSIDE AP    CLEAR       24  17  74  CALM    30.24R
YAKIMA AIRPORT  CLEAR       27  19  71  W6      30.23R
YAKIMA-VAGABOND CLEAR       28  18  66  W2      30.21R
#DONALD 2NE     N/A         34  10  36  CALM    29.07R
#MABTON         N/A         31  21  66  CALM    30.23R
#NACHES 2SW     N/A         31  23  72  SW2     30.19R
#OUTLOOK DOT    N/A         N/A N/A N/A CALM    N/A
#SELAH 8E       N/A         21  13  71  E2      N/A
#TERRACE HTS    N/A         28  18  66  CALM    30.23R
#TOPPENISH      N/A         31  21  66  CALM    30.16S
#WAPATO 4NE     N/A         34  10  36  CALM    29.07R
#WEST VALLEY    N/A         29  22  75  CALM    30.24R
#W YAKIMA       N/A         32  22  66  W1      30.25R
#WHITE SWAN 5E  N/A         28  22  78  NW3     30.26R
#WILEY CITY 3W  N/A         31  20  63  CALM    30.22R
$$

WAZ028-040810-
LOWER COLUMBIA BASIN...WASHINGTON

CITY            SKY/WX      TMP DP  RH  WIND    PRES   REMARKS
PASCO           CLEAR       28  16  60  E5      30.26R
PROSSER AWOS    N/A         28  19  68  NE1     30.27R
RICHLAND AWOS   CLEAR       32  19  58  CALM    30.25R
#BASIN CITY 5SW N/A         28  14  55  N3      30.23S
#BENTON CITY    N/A         32  18  56  CALM    30.16S
#CONNELL 5N     N/A         23  12  62  CALM    30.27R
#CONNELL 5NW    N/A         26  14  60  W2      30.23R
#ELTOPIA        N/A         27  15  60  CALM    30.23R
#ELTOPIA 6NW    N/A         31  15  51  S1      29.19R
#KAHLOTUS       N/A         27  13  55  S7      30.27R
#KENNEWICK 3S   N/A         35  18  49  CALM    30.26S
#PASCO-BROADMOORN/A         31  16  53  E1      30.18R
#PATERSON       N/A         31  19  61  NE1     30.25R
#PROSSER        N/A         38  14  37  SW2     30.25R
#SAGEMOOR 2W    N/A         32  17  53  E3      30.11R
#TOUCHET 2S     N/A         23  16  74  CALM    30.27R
#WEST PASCO     N/A         33  17  51  SE1     30.26S
$$

WAZ029-040810-
FOOTHILLS OF THE BLUES...WASHINGTON

CITY            SKY/WX      TMP DP  RH  WIND    PRES   REMARKS
WALLA WALLA AP  CLEAR       32  17  53  E8      30.22S
#DAYTON SCHOOL  N/A         25  10  52  CALM    30.22S
#LOWDEN 2SE     N/A         26  21  81  E2      30.23R
#PLEASANT VIEW 1N/A         29  15  55  S6      30.32S
#PRESCOTT       N/A         25  21  84  CALM    30.27S
#SUDBURY        N/A         23  N/A N/A CALM    N/A
#WHITMAN COLLEGEN/A         35  18  49  E3      30.32S
#WAITSBURG 5S   N/A         28  17  63  SE1     30.37S
#WAITSBURG 8N   N/A         23   1  38  N1      30.06S
#WALLA WALLA 5E N/A         29  20  69  E2      N/A
#WALLA WALLA U  N/A         31  21  66  CALM    30.28R
#WHITMAN MISSIONN/A         27  22  81  CALM    30.30R
$$

WAZ030-040810-
BLUE MOUNTAINS...WASHINGTON

CITY            SKY/WX      TMP DP  RH  WIND    PRES   REMARKS
#DIXIE 5SE      N/A         29   3  32  S2      30.10R
#SKI BLUEWOOD   N/A         14   6  70  CALM    30.09R
$$

ORZ009-041-WAZ024-040810-
COLUMBIA RIVER GORGE

CITY            SKY/WX      TMP DP  RH  WIND    PRES   REMARKS
HOOD RIVER AP   CLEAR       32  27  82  S3      30.25R
THE DALLES AP   CLEAR       31  23  72  CALM    30.26R
#ARLINGTON AIRPON/A         34  22  61  NW3     30.01S
#ARLINGTON HS   N/A         30  20  66  N1      30.20R
#CELILO DOT     N/A         35  19  52  CALM    N/A
#MOSIER 1S      N/A         32  14  47  CALM    30.21S
#MURDOCK        N/A         36  29  75  CALM    30.29R
#RUFUS DOT      N/A         36  21  54  SE8     N/A

$$

ORZ510-040810-
NORTH CENTRAL OREGON

CITY            SKY/WX      TMP DP  RH  WIND    PRES   REMARKS
#CHENOWITH 1W   N/A         36  18  47  E5      N/A
#COW CYN RST AREN/A         33  16  49  CALM    N/A
#DUFUR 9E       N/A         35  20  54  CALM    30.30R
#GRASS VALLEY 1SN/A         29  20  69  E1      30.29S
#KENT DOT       N/A         30  11  44  SE3     N/A
#MAUPIN SCHOOL  N/A         33  21  61  CALM    30.24R
#MORO SCHOOL    N/A         24  21  88  S1      30.21R
#SHANIKO 5WSW   N/A         34   8  33  E3      N/A
#SHANIKO 4NW    N/A         32  14  47  S2      30.14R
#TYGH VALLEY 2NEN/A         30  22  72  CALM    30.25R
#WAPANITIA AIRPON/A         30  21  69  CALM    30.27R
#WASCO DOT      N/A         24  21  88  E2      N/A
#WASCO 5NE      N/A         21  16  81  CALM    30.27R
$$

ORZ511-040810-
CENTRAL OREGON

CITY            SKY/WX      TMP DP  RH  WIND    PRES   REMARKS
BEND AIRPORT    CLEAR       25  16  68  CALM    30.16R
MADRAS AIRPORT  CLEAR       27  19  71  SE6     30.20R
PRINEVILLE AP   CLEAR       21  18  88  CALM    30.17R
REDMOND AIRPORT CLEAR       22  16  77  SE3     30.17R
#BEND 6E        N/A         27  14  57  CALM    30.24S
#BEND 1SW       N/A         24  17  74  CALM    N/A
#BEND-AWBREY    N/A         28  19  68  CALM    30.26R
#BEND-KIM LN    N/A         29  19  66  CALM    30.12S
#CROOKED RVR RANN/A         28  19  68  N14     30.26R WCI 17
#CULVER         N/A         26  18  71  CALM    30.15R
#LAKE BILLY CHINN/A         30  10  42  CALM    30.29R
#POWELL BUTTE 3EN/A         26  16  65  SE2     N/A
#POWELL BUTTE   N/A         26  15  63  S3      29.78R
#PRINEVILLE 3N  N/A         21  17  84  E2      30.22R
#WARM SPRINGS   N/A         30  21  69  CALM    30.18R

$$


ORZ509-040810-
EAST SLOPES OF OREGON CASCADES

CITY            SKY/WX      TMP DP  RH  WIND    PRES   REMARKS
#BLUE BOX PASS  N/A         30  -18 11  CALM    N/A
#CAMP SHERMAN   N/A         22  15  74  CALM    30.29F
#LA PINE 4NW    N/A         25  15  65  CALM    30.28R
#MT BACHELOR-MIDN/A         27   0  30  CALM    N/A
#SISTERS AIRPOR N/A         22  18  84  CALM    30.17S
#SISTERS ODOT   N/A         23  N/A N/A CALM    N/A
#SISTERS 3N     N/A         21   6  52  CALM    30.19R
#SUNRIVER       N/A         23  18  81  CALM    30.16R
#TUMALO 3W      N/A         32  16  51  SW3     30.13S
#WANOGA BUTTE D N/A         24  11  57  NE3     N/A

$$

ORZ044-040810-
LOWER COLUMBIA BASIN...OREGON

CITY            SKY/WX      TMP DP  RH  WIND    PRES   REMARKS
HERMISTON       CLEAR       23  16  74  CALM    30.24R
#BOARDMAN 8SW   N/A         32  22  66  CALM    30.26R
#IONE SCHOOL    N/A         31  20  63  CALM    30.21R
#IRRIGON 4NW    N/A         32  21  63  E5      N/A
#UMATILLA SCHOOLN/A         24  21  88  CALM    30.33R
#UMATILLA       N/A         30  17  58  CALM    30.24R
$$

ORZ507-040810-
NORTHERN FOOTHILLS OF THE BLUES

CITY            SKY/WX      TMP DP  RH  WIND    PRES   REMARKS
PENDLETON AIRPT CLEAR       26  18  71  SE9     30.21S
#ADAMS 3WNW     N/A         22  16  77  CALM    30.29S
#ATHENA         N/A         21  15  77  CALM    30.31R
#CAYUSE         N/A         31  20  63  E6      30.27S
#HELIX SCHOOL   N/A         20  14  77  CALM    30.29R
#HELIX 3N       N/A         27  16  63  SE7     30.16R
#HELIX 6SW      N/A         25  17  71  NE3     30.20S
#HOLDMAN 5SE    N/A         27  20  74  CALM    30.22R
#HOLDMAN 6E     N/A         26  16  65  CALM    30.09R
#M-F FERNDALE   N/A         31  17  56  CALM    30.22S
#M-FREEWATER 5SEN/A         32  18  56  E6      30.22S
#PENDLETON DNTN N/A         25   7  46  E2      30.25R
#PDT AQUATIC CTRN/A         27   9  46  CALM    30.22S
#PDT SUNRIDGE   N/A         24  17  74  CALM    30.25R
#PENDLETON 7NW  N/A         26  18  71  SE3     25.33
#PILOT ROCK     N/A         30  15  53  CALM    30.23R
#TUTUILLA       N/A         23  17  77  CALM    30.27R
#UMAPINE 2E     N/A         31  20  63  S6      30.21S
#WESTON SCHOOL  N/A         31  12  45  SW2     30.19S

$$

ORZ508-040810-
SOUTHERN FOOTHILLS OF THE BLUES

CITY            SKY/WX      TMP DP  RH  WIND    PRES   REMARKS
LEXINGTON       CLEAR       32  23  69  SE13    30.23R WCI 22
#AJAX           N/A         34  15  45  E1      30.11R
#CONDON SCHOOL  N/A         30  21  69  CALM    30.12R
#CONDON 5W      N/A         33  18  53  CALM    30.12R
#FOSSIL SCHOOL  N/A         26  19  74  CALM    30.14S
#HEPPNER EOC    N/A         28  20  71  SE7     30.23S
#HEPPNER 4NE    N/A         30  18  60  SE6     30.28R
#LEXINGTON 2SE  N/A         32  21  63  SE5     30.17S
#MIKKALO        N/A         28  18  66  NE2     30.19S
#OLEX 4N        N/A         31  24  75  S5      30.20R
#RUGGS 5NE      N/A         24  16  71  SE1     30.30F
#RUGGS 2SW      N/A         30  18  60  SW10    30.29S

$$

ORZ502-503-040810-
BLUE MOUNTAINS

CITY            SKY/WX      TMP DP  RH  WIND    PRES   REMARKS
MEACHAM         CLEAR       16  12  84  CALM    30.15R
#BATTLE MTN DOT N/A         19  16  88  CALM    N/A
#HEPPNER 15SE   N/A         18  14  84  CALM    30.05R
#LADD CREEK ODOTN/A         23  14  68  CALM    N/A
#LONG CREEK HS  N/A         23  21  92  CALM    30.11S
#N POWDER DOT   N/A         25  15  65  N7      N/A
#PIKES PEAK     N/A         29  10  44  S6      27.99S
#TROY SCHOOL    N/A         26  19  74  CALM    30.16R
#UKIAH          N/A         15  13  92  CALM    30.37R
#WESTON 4E      N/A         24  13  62  E2      30.24S
$$

ORZ505-040810-
JOHN DAY BASIN

CITY            SKY/WX      TMP DP  RH  WIND    PRES   REMARKS
JOHN DAY        CLEAR       27  18  68  E3      30.17R
#JOHN DAY KJDY  N/A         25  16  68  CALM    30.19F
#DAYVILLE SCHOOLN/A         27  19  71  CALM    30.16R
#MITCHELL       N/A         26  20  78  CALM    30.29S
#MONUMENT HS    N/A         25  18  74  CALM    30.21R
#MT. VERNON 5SE N/A         21  16  81  CALM    30.10R
#SPRAY SCHOOL   N/A         24  N/A N/A CALM    N/A
#WINLOCK        N/A         24  14  65  CALM    30.24R
$$

ORZ506-040810-
OCHOCO AND JOHN DAY HIGHLANDS

CITY            SKY/WX      TMP DP  RH  WIND    PRES   REMARKS
#BUCK CREEK DOT N/A         27  27  100 CALM    N/A
#HORSE RIDGE DO N/A         20  15  81  CALM    N/A
#PAULINA SCHOOL N/A         41  15  34  CALM    30.10R
#PINE MTN OBS   N/A         23   8  52  CALM    N/A
#PRAIRIE CITY   N/A         17  10  73  CALM    30.45R
#SENECA         N/A         13  N/A N/A CALM    N/A
#SENECA 9NW     N/A         14  10  84  CALM    30.28R
$$

ORZ049-040810-
GRANDE RONDE VALLEY

CITY            SKY/WX      TMP DP  RH  WIND    PRES   REMARKS
LA GRANDE       CLEAR       27  10  48  N12     30.17R WCI 16
#COVE           N/A         21  13  71  CALM    30.17S
#COVE SCHOOL    N/A         23  14  68  CALM    30.14R
#ELGIN 3N       N/A         18   3  51  CALM    30.16R
#ELGIN 1E       N/A         23  14  68  CALM    N/A
#IMBLER SCHOOL  N/A         23  13  65  N3      30.13R
#ISLAND CITY 4N N/A         36  30  79  CALM    30.21R
#LADD CYN DOT   N/A         26  13  57  SE7     N/A
#UNION 1S       N/A         21  13  71  CALM    30.21R
$$

ORZ050-040810-
WALLOWA COUNTY

CITY            SKY/WX      TMP DP  RH  WIND    PRES   REMARKS
#ENTERPRISE HS  N/A         20  13  74  CALM    30.16R
#IMNAHA SCHOOL  N/A         28  21  75  SW2     30.22R
#IMNAHA 10S     N/A         24  17  74  SW3     30.16R
#JOSEPH 3N      N/A         16   9  73  CALM    30.15R
#JOSEPH 3W      N/A         17   2  51  SW1     29.95R
#LOSTINE        N/A         21  12  68  CALM    30.10R
#MT HOWARD 8000 N/A          7   3  83  W7      29.87R
#PROMISE 1S     N/A         20  13  74  CALM    30.41S
#SHEEP RDG 7000 N/A         13   6  73  CALM    30.37R
#WALLOWA SCHOOL N/A         20  13  74  CALM    31.28R



$$



USA.gov is the U.S. government's official web portal to all federal, state and local government web resources and services.